[[{"header":{"parameterUnit":"m.s-1","parameterCategory":2,"la1":30.2991,"la2":30.254,"lo1":-89.0895,"lo2":-89.0444,"dy":0.0017,"dx":0.0017,"nx":28,"ny":28,"refTime":"2025-11-25T09:00:00:Z","depth":"0","parameterNumber":2,"parameterNumberName":"U-component_of_CURRENTS"},"data":[0,0,0,0,0,0,0,0,0,0,0,0,0,0,0,0,0,0,0,0,0,0,0,0,0,0,0,0,0,0,0,0,0,0,0,0,0,0,0,0,0,0,0,0,0,0,0,0,0,0,0,0,0,0,0,0,0,0,0.2797,0.2798,0,0.282,0.2821,0.2821,0.2817,0.2817,0.2817,0.2816,0.282,0.2821,0.2821,0,0,0,0,0,0,0,0,0,0,0,0,0,0.2774,0.2774,0.2797,0.2798,0.2798,0.282,0.2821,0.2821,0.2817,0.2817,0.2816,0.2816,0.282,0.2821,0.2821,0,0,0,0,0,0,0,0,0,0,0,0,0,0.2788,0.2774,0.2797,0.28,0.2801,0.282,0.2821,0.2821,0.2817,0.2817,0.2816,0.2816,0.282,0.2821,0.2821,0.2831,0,0,0.2823,0.2823,0,0,0,0,0,0,0,0,0.2787,0.2788,0.2799,0.28,0.2801,0.2817,0.2814,0.2824,0.2817,0.2809,0.2816,0.2816,0.2819,0.2819,0.2822,0.2832,0.2832,0.2823,0.2823,0.2823,0.2823,0,0,0,0,0,0,0,0.2786,0.2787,0.2805,0.28,0.2801,0.2809,0.281,0.2816,0.2814,0.281,0.281,0.2815,0.2819,0.2822,0.2822,0.2832,0.2823,0.2823,0.2823,0.2824,0.2886,0.2887,0,0,0,0,0,0,0.2785,0.2786,0.2804,0.2806,0.2795,0.281,0.2811,0.2811,0.2815,0.2815,0.2816,0.2815,0.2821,0.2822,0.2823,0.2861,0.2823,0.2824,0.2824,0.2884,0.2886,0.2887,0,0,0,0,0,0,0.2785,0.2787,0.2803,0.2798,0.2801,0.281,0.281,0.2812,0.2817,0.2819,0.2819,0.2821,0.2821,0.2822,0.2839,0.286,0.2824,0.2824,0.2883,0.2885,0.2887,0.2921,0,0,0,0,0,0,0.2784,0.2786,0.2787,0.2798,0.2801,0.282,0.2811,0.2812,0.2822,0.2821,0.2824,0.2824,0.2821,0.2838,0.2839,0.286,0.2825,0.2881,0.2884,0.2886,0.2918,0.2924,0.2929,0,0,0,0,0,0.2783,0.2786,0.2787,0.279,0.2802,0.282,0.2823,0.2827,0.2822,0.283,0.2835,0.2824,0.2855,0.2839,0.284,0.2862,0.288,0.2883,0.2886,0.2916,0.2923,0.2929,0,0,0,0,0,0,0.2775,0.2787,0.2788,0.2794,0.2809,0.282,0.2828,0.2831,0.284,0.284,0.2837,0.2838,0.2865,0.286,0.2842,0.2889,0.2867,0.2871,0.289,0.2897,0.2902,0.2907,0.2825,0,0,0,0,0,0.2775,0.278,0.2795,0.28,0.2808,0.2819,0.2826,0.2832,0.2842,0.2846,0.2849,0.2859,0.2878,0.2883,0.2897,0.2916,0.2939,0.2933,0.2938,0.2943,0.295,0.3017,0.3029,0.2897,0.2897,0.2897,0,0,0.2773,0.2781,0.2783,0.2799,0.2809,0.2828,0.2822,0.2838,0.2854,0.2845,0.2866,0.2878,0.289,0.2918,0.2929,0.2914,0.2992,0.2947,0.295,0.2955,0.3022,0.3034,0.3046,0.2899,0.2899,0.2899,0,0,0.2777,0.278,0.2788,0.2804,0.2824,0.2835,0.2841,0.2859,0.2867,0.2892,0.2896,0.2922,0.2939,0.2958,0.2969,0.3012,0.3022,0.3015,0.3041,0.3107,0.3118,0.3129,0.3172,0.3186,0.3013,0.3013,0.3014,0,0.2776,0.2785,0.2795,0.2811,0.2825,0.284,0.2857,0.2874,0.2895,0.2917,0.2903,0.2964,0.2963,0.3016,0.3025,0.3025,0.3058,0.3013,0.3114,0.3125,0.3135,0.3178,0.3193,0.3015,0.3015,0.3015,0.3015,0,0.2787,0.2799,0.2807,0.2831,0.2849,0.2867,0.2893,0.2917,0.293,0.2955,0.3009,0.3018,0.306,0.3061,0.3051,0.3123,0.3122,0.3117,0.3097,0.315,0.3192,0.3207,0.3018,0.3018,0.3017,0.3017,0,0,0.2772,0.2807,0.281,0.2827,0.2861,0.2878,0.2916,0.2963,0.301,0.3029,0.3094,0.3113,0.3132,0.3145,0.3146,0.3184,0.327,0.3176,0.3178,0.3217,0.3411,0.3362,0.3374,0.3288,0.3291,0.3293,0.341,0,0.2778,0.2806,0.2824,0.2859,0.2878,0.2911,0.2952,0.3,0.3047,0.3117,0.3145,0.3205,0.3162,0.3193,0.3226,0.3275,0.3312,0.3238,0.3355,0.3358,0.3307,0.3391,0.3274,0.3365,0.3425,0.3427,0.3429,0,0.2779,0.28,0.2828,0.2883,0.2896,0.2922,0.3003,0.3047,0.3149,0.3191,0.3257,0.3294,0.3361,0.3315,0.3416,0.3376,0.3393,0.3413,0.3418,0.3371,0.3338,0.3322,0.339,0.3345,0.3452,0.345,0.3449,0,0.276,0.2804,0.2824,0.284,0.2905,0.2931,0.2975,0.3069,0.314,0.3253,0.3335,0.3403,0.3473,0.3506,0.3534,0.3495,0.3646,0.3603,0.3572,0.3568,0.349,0.3474,0.3524,0.3674,0.3674,0.3674,0.3673,0,0.2756,0.2776,0.2817,0.2831,0.2889,0.2927,0.3017,0.308,0.3199,0.3302,0.3376,0.3471,0.3529,0.3614,0.36,0.3646,0.3708,0.3599,0.3608,0.3497,0.3481,0.3453,0.3426,0.3678,0.3677,0.3676,0.3675,0,0.2744,0.2759,0.28,0.2859,0.2882,0.2927,0.3047,0.3116,0.3234,0.3375,0.342,0.3571,0.3674,0.3719,0.3798,0.3751,0.3678,0.3769,0.3622,0.361,0.35,0.3479,0.3339,0.3225,0.3758,0.3758,0.3757,0,0.2744,0.2759,0.2824,0.2852,0.2879,0.2954,0.3009,0.3121,0.3198,0.3421,0.348,0.3648,0.3727,0.3842,0.3803,0.3803,0.3681,0.3688,0.3578,0.3502,0.3487,0.3286,0.3185,0.3492,0.349,0.3488,0.3487,0,0.2767,0.2785,0.2823,0.2873,0.2917,0.2978,0.3054,0.3119,0.3256,0.3369,0.351,0.3599,0.3735,0.3702,0.3728,0.3694,0.3512,0.3646,0.3621,0.3333,0.3066,0.2958,0.3399,0.3469,0.3471,0.3472,0.3473,0.3474,0.28,0.2827,0.2864,0.2904,0.2941,0.2961,0.2978,0.3053,0.3144,0.3243,0.3405,0.3462,0.3579,0.3596,0.356,0.3464,0.3379,0.3357,0.3356,0.3171,0.2995,0.3386,0.3426,0.3428,0.3429,0.343,0.3431,0,0.2831,0.2848,0.2891,0.2904,0.2895,0.2929,0.2971,0.2943,0.2966,0.3077,0.3148,0.3236,0.3253,0.332,0.3305,0.3197,0.2994,0.3131,0.2853,0.2782,0.3209,0.3134,0.3047,0.3048,0.3048,0.3048,0.3048,0.3048,0.2856,0.2874,0.2872,0.2838,0.2834,0.2752,0.2742,0.2709,0.2732,0.2726,0.2744,0.2826,0.3057,0.3176,0.3115,0.3032,0.2794,0.2659,0.2638,0.3014,0.3034,0.3053,0.2978,0.286,0.286,0.2053,0.2048,0.2043]},{"header":{"parameterUnit":"m.s-1","parameterCategory":2,"la1":30.2991,"la2":30.254,"lo1":-89.0895,"lo2":-89.0444,"dy":0.0017,"dx":0.0017,"nx":28,"ny":28,"refTime":"2025-11-25T09:00:00:Z","depth":"0","parameterNumber":3,"parameterNumberName":"V-component_of_CURRENTS"},"data":[0,0,0,0,0,0,0,0,0,0,0,0,0,0,0,0,0,0,0,0,0,0,0,0,0,0,0,0,0,0,0,0,0,0,0,0,0,0,0,0,0,0,0,0,0,0,0,0,0,0,0,0,0,0,0,0,0,0,0.0363,0.0363,0,0.0339,0.0339,0.0339,0.0311,0.031,0.031,0.031,0.0258,0.0257,0.0256,0,0,0,0,0,0,0,0,0,0,0,0,0,0.034,0.0341,0.0363,0.0363,0.0363,0.0339,0.0339,0.0338,0.0311,0.031,0.031,0.031,0.0259,0.0257,0.0256,0,0,0,0,0,0,0,0,0,0,0,0,0,0.0336,0.0341,0.0363,0.0347,0.0346,0.0339,0.0339,0.0338,0.0311,0.031,0.031,0.031,0.0259,0.0257,0.0256,0.0254,0,0,0.0251,0.025,0,0,0,0,0,0,0,0,0.0336,0.0336,0.035,0.0349,0.0347,0.0329,0.0312,0.0309,0.0311,0.0323,0.031,0.0309,0.0281,0.0277,0.0272,0.0252,0.0249,0.0251,0.025,0.0249,0.0248,0,0,0,0,0,0,0,0.0336,0.0337,0.0352,0.035,0.0348,0.0326,0.0325,0.0311,0.0303,0.0321,0.032,0.032,0.0279,0.0274,0.027,0.0249,0.0251,0.0249,0.0248,0.0247,0.0225,0.0226,0,0,0,0,0,0,0.0345,0.0338,0.0353,0.0352,0.0342,0.0327,0.0326,0.0334,0.0303,0.0299,0.032,0.0318,0.0277,0.0272,0.0268,0.0279,0.0249,0.0247,0.0246,0.0225,0.0226,0.0226,0,0,0,0,0,0,0.0345,0.0347,0.0354,0.0345,0.0344,0.0329,0.0337,0.0334,0.0329,0.0303,0.0297,0.0319,0.0276,0.0271,0.0262,0.0277,0.0247,0.0245,0.0225,0.0225,0.0226,0.0292,0,0,0,0,0,0,0.0345,0.0348,0.0354,0.0346,0.0345,0.036,0.0338,0.0333,0.033,0.0328,0.03,0.0295,0.0275,0.0265,0.0261,0.0274,0.0244,0.0224,0.0225,0.0226,0.0289,0.0295,0.0299,0,0,0,0,0,0.0344,0.036,0.0354,0.0356,0.0355,0.0361,0.0359,0.0344,0.0331,0.0336,0.0316,0.0296,0.0266,0.0264,0.0259,0.0272,0.0224,0.0225,0.0225,0.0287,0.0293,0.0299,0,0,0,0,0,0,0.0351,0.0358,0.0352,0.0368,0.0368,0.0357,0.0359,0.0349,0.0337,0.0331,0.0303,0.0297,0.0293,0.0273,0.0271,0.0267,0.0241,0.0241,0.0289,0.0295,0.0301,0.0318,0.0242,0,0,0,0,0,0.0357,0.0371,0.0371,0.0383,0.0384,0.0371,0.037,0.0362,0.0351,0.0345,0.0328,0.0306,0.0293,0.0287,0.027,0.0271,0.0245,0.0274,0.0279,0.0284,0.0294,0.0269,0.0273,0.0229,0.0229,0.0229,0,0,0.0363,0.0368,0.0375,0.0385,0.038,0.0398,0.0369,0.0373,0.0387,0.0342,0.035,0.0323,0.0296,0.0296,0.0293,0.0282,0.0281,0.0285,0.0289,0.0297,0.027,0.0274,0.0278,0.023,0.023,0.0229,0,0,0.0387,0.0386,0.0408,0.0414,0.0417,0.0414,0.0419,0.0413,0.0407,0.041,0.0381,0.0365,0.0346,0.0333,0.0322,0.0345,0.0307,0.0336,0.038,0.0356,0.036,0.0363,0.033,0.033,0.0342,0.0342,0.0342,0,0.0392,0.0424,0.0414,0.0438,0.0451,0.0428,0.0457,0.0451,0.0442,0.0447,0.0421,0.0396,0.0365,0.0373,0.0376,0.0358,0.0334,0.0362,0.0364,0.0366,0.0368,0.0334,0.0333,0.0345,0.0345,0.0344,0.0344,0,0.0437,0.0461,0.0474,0.0502,0.0513,0.0532,0.053,0.0533,0.0519,0.0515,0.0512,0.0468,0.0455,0.044,0.0413,0.0417,0.0392,0.0372,0.0352,0.0377,0.0339,0.0336,0.035,0.0349,0.0348,0.0347,0,0,0.0454,0.0498,0.0504,0.0534,0.055,0.0569,0.0588,0.0609,0.0639,0.0603,0.0632,0.0584,0.0556,0.0541,0.0501,0.0476,0.0456,0.0434,0.0431,0.0408,0.0398,0.0386,0.0381,0.0438,0.0438,0.0438,0.0365,0,0.0493,0.0561,0.0567,0.063,0.0669,0.0659,0.0694,0.0705,0.0702,0.0723,0.0666,0.0678,0.0597,0.0598,0.0554,0.0495,0.0454,0.0478,0.0372,0.0369,0.036,0.0379,0.0417,0.0355,0.0362,0.0361,0.0361,0,0.0537,0.0582,0.0654,0.0719,0.0735,0.0765,0.082,0.085,0.0862,0.0861,0.084,0.08,0.076,0.0688,0.0575,0.0596,0.0498,0.0435,0.0431,0.0397,0.0352,0.0331,0.035,0.0245,0.0356,0.0357,0.0357,0,0.0574,0.0642,0.0706,0.0727,0.0794,0.0821,0.0858,0.0892,0.0952,0.0957,0.1,0.0917,0.091,0.0775,0.0626,0.0605,0.0501,0.0455,0.0343,0.034,0.0341,0.0339,0.0254,0.0362,0.0362,0.0362,0.0362,0,0.0623,0.0674,0.0731,0.077,0.0866,0.0883,0.0986,0.1008,0.1071,0.1171,0.1081,0.1132,0.0934,0.0848,0.0674,0.0512,0.053,0.0357,0.0327,0.0364,0.0365,0.0248,0.0185,0.0359,0.036,0.0361,0.0361,0,0.0665,0.0694,0.078,0.0856,0.0891,0.0963,0.1092,0.1176,0.1215,0.134,0.1355,0.1306,0.1191,0.0978,0.0774,0.0606,0.0368,0.0361,0.0414,0.039,0.0184,0.0124,-0.0016,-0.0074,0.0229,0.0228,0.0228,0,0.0697,0.0746,0.0854,0.0922,0.0962,0.1074,0.1173,0.1246,0.1349,0.1462,0.1535,0.1461,0.1429,0.1115,0.0802,0.0498,0.0356,0.0332,0.029,0.0187,0.0097,0.0038,-0.0005,0.0308,0.0308,0.0308,0.0309,0,0.0775,0.0805,0.0883,0.1021,0.1125,0.1259,0.1394,0.1501,0.1611,0.1715,0.1819,0.18,0.1509,0.1232,0.0817,0.0594,0.0275,0.0324,0.0211,0.0151,0.009,0.0016,0.0331,0.031,0.031,0.0309,0.0309,0.0309,0.084,0.091,0.101,0.1139,0.1262,0.1424,0.1549,0.17,0.1878,0.2036,0.2007,0.2019,0.1646,0.1087,0.0768,0.0281,0.0259,0.0147,0.008,0.0028,-0.0017,0.0298,0.0248,0.0247,0.0247,0.0247,0.0246,0,0.0928,0.1007,0.113,0.1283,0.1418,0.1472,0.1691,0.182,0.2031,0.216,0.2226,0.2089,0.1617,0.1122,0.0476,0.013,-0.0024,-0.0054,-0.012,-0.0157,0.0124,0.0142,0.0078,0.0078,0.0078,0.0078,0.0078,0.0078,0.0984,0.1106,0.1162,0.1384,0.1497,0.1683,0.1811,0.2002,0.2137,0.2307,0.2354,0.2361,0.2085,0.0893,0.0124,-0.0066,-0.0289,-0.035,-0.0473,-0.0264,-0.0249,-0.0236,-0.0234,-0.0376,-0.0376,-0.0706,-0.071,-0.0712]}],[{"header":{"parameterUnit":"m.s-1","parameterCategory":2,"la1":30.2991,"la2":30.254,"lo1":-89.0895,"lo2":-89.0444,"dy":0.0017,"dx":0.0017,"nx":28,"ny":28,"refTime":"2025-11-25T09:00:00:Z","depth":"2","parameterNumber":2,"parameterNumberName":"U-component_of_CURRENTS"},"data":[0,0,0,0,0,0,0,0,0,0,0,0,0,0,0,0,0,0,0,0,0,0,0,0,0,0,0,0,0,0,0,0,0,0,0,0,0,0,0,0,0,0,0,0,0,0,0,0,0,0,0,0,0,0,0,0,0,0,0.2699,0.27,0,0.2723,0.2723,0.2723,0.2725,0.2725,0.2725,0.2725,0.2735,0.2735,0.2735,0,0,0,0,0,0,0,0,0,0,0,0,0,0.2676,0.2676,0.2699,0.27,0.27,0.2723,0.2723,0.2723,0.2725,0.2725,0.2725,0.2725,0.2735,0.2735,0.2735,0,0,0,0,0,0,0,0,0,0,0,0,0,0.269,0.2676,0.2699,0.2705,0.2706,0.2723,0.2723,0.2724,0.2725,0.2725,0.2725,0.2725,0.2734,0.2735,0.2736,0.2742,0,0,0.2737,0.2737,0,0,0,0,0,0,0,0,0.2689,0.269,0.2704,0.2705,0.2706,0.2723,0.2719,0.273,0.2726,0.2716,0.2725,0.2725,0.2731,0.2731,0.2734,0.2742,0.2743,0.2737,0.2737,0.2738,0.2738,0,0,0,0,0,0,0,0.2688,0.269,0.2707,0.2705,0.2706,0.2714,0.2715,0.2721,0.2722,0.2717,0.2718,0.2723,0.2731,0.2734,0.2734,0.2743,0.2737,0.2738,0.2738,0.2738,0.28,0.2802,0,0,0,0,0,0,0.2688,0.2689,0.2706,0.2708,0.2699,0.2714,0.2716,0.2716,0.2723,0.2724,0.2723,0.2723,0.2733,0.2734,0.2735,0.2776,0.2738,0.2738,0.2739,0.2799,0.2801,0.2802,0,0,0,0,0,0,0.2687,0.2689,0.2705,0.2701,0.2703,0.2715,0.2715,0.2717,0.2726,0.2728,0.2729,0.2732,0.2733,0.2734,0.2752,0.2775,0.2738,0.2739,0.2798,0.28,0.2801,0.2837,0,0,0,0,0,0,0.2686,0.2688,0.2691,0.27,0.2704,0.2722,0.2716,0.2717,0.273,0.273,0.2735,0.2736,0.2733,0.2752,0.2753,0.2775,0.2739,0.2796,0.2798,0.2801,0.2834,0.284,0.2845,0,0,0,0,0,0.2685,0.2689,0.2691,0.2693,0.2706,0.2723,0.2725,0.2732,0.273,0.2738,0.2746,0.2736,0.2769,0.2753,0.2754,0.2777,0.2795,0.2798,0.2801,0.2831,0.2839,0.2845,0,0,0,0,0,0,0.2679,0.269,0.2692,0.2699,0.2713,0.2724,0.2733,0.2737,0.2749,0.2751,0.2748,0.275,0.2778,0.2774,0.2756,0.2804,0.2782,0.2785,0.2805,0.2812,0.2817,0.2822,0.274,0,0,0,0,0,0.268,0.2685,0.2699,0.2705,0.2713,0.2724,0.2733,0.2739,0.275,0.2755,0.2761,0.2772,0.2791,0.2797,0.281,0.283,0.285,0.2848,0.2854,0.2858,0.2864,0.2928,0.294,0.2812,0.2812,0.2812,0,0,0.2679,0.2686,0.2689,0.2705,0.2715,0.2732,0.2729,0.2746,0.2763,0.2755,0.2778,0.2791,0.2802,0.2831,0.2842,0.2828,0.2905,0.2862,0.2866,0.2869,0.2932,0.2945,0.2956,0.2814,0.2814,0.2813,0,0,0.2683,0.2688,0.2696,0.2711,0.2732,0.2742,0.275,0.2767,0.2778,0.2804,0.2809,0.2836,0.2854,0.2872,0.2882,0.2926,0.2935,0.293,0.2956,0.3018,0.3029,0.3039,0.3078,0.3092,0.2929,0.2929,0.2929,0,0.2684,0.2693,0.2702,0.2718,0.2732,0.2748,0.2765,0.2782,0.2804,0.2827,0.2817,0.2878,0.2878,0.2928,0.2939,0.2938,0.2969,0.2928,0.3026,0.3036,0.3046,0.3083,0.3098,0.2931,0.2931,0.293,0.293,0,0.2693,0.2706,0.2715,0.2738,0.2756,0.2774,0.2799,0.2824,0.2841,0.2866,0.2921,0.2931,0.2972,0.2975,0.2965,0.3035,0.3033,0.3028,0.3008,0.3061,0.3097,0.3111,0.2934,0.2933,0.2933,0.2932,0,0,0.2681,0.2714,0.2717,0.2734,0.2767,0.2783,0.2822,0.2868,0.2913,0.2937,0.2999,0.3022,0.3043,0.3056,0.3057,0.3094,0.3176,0.3087,0.3089,0.3123,0.3308,0.3254,0.3264,0.3194,0.3197,0.3199,0.3305,0,0.2686,0.2713,0.273,0.2764,0.2781,0.2815,0.2855,0.2902,0.2949,0.3017,0.3047,0.3107,0.3071,0.3102,0.3136,0.3179,0.3216,0.3147,0.3254,0.3257,0.3201,0.328,0.2989,0.3054,0.3318,0.3321,0.3322,0,0.2687,0.2707,0.2733,0.2784,0.2797,0.2823,0.29,0.2943,0.3042,0.3086,0.3154,0.3189,0.3256,0.3216,0.3314,0.3277,0.3294,0.3311,0.3316,0.3263,0.323,0.3046,0.307,0.3346,0.3344,0.3342,0.3341,0,0.2667,0.2709,0.2729,0.2744,0.2805,0.2832,0.2875,0.2966,0.3035,0.3144,0.3222,0.3291,0.336,0.3393,0.3422,0.3387,0.3526,0.3487,0.3451,0.3447,0.3217,0.3188,0.3556,0.3556,0.3555,0.3555,0.3555,0,0.2662,0.2681,0.2722,0.2735,0.2789,0.2828,0.2913,0.2975,0.3092,0.3186,0.3262,0.3348,0.3414,0.3493,0.3482,0.3522,0.3584,0.3476,0.3483,0.3221,0.3192,0.3454,0.3441,0.3559,0.3558,0.3557,0.3557,0,0.2645,0.2663,0.2701,0.2758,0.2782,0.2825,0.2943,0.3007,0.3124,0.3253,0.3298,0.3443,0.3537,0.3584,0.3659,0.3617,0.3641,0.363,0.3309,0.3276,0.3499,0.3487,0.3611,0.361,0.3609,0.3609,0.3608,0,0.2641,0.2656,0.2719,0.2746,0.2773,0.2846,0.2898,0.3013,0.3083,0.3291,0.3343,0.3502,0.3562,0.3671,0.3621,0.3616,0.3665,0.335,0.3224,0.3518,0.3512,0.35,0.3489,0.2929,0.2924,0.2919,0.2915,0,0.2652,0.2672,0.2706,0.2749,0.2793,0.2854,0.2928,0.2981,0.3112,0.3212,0.3327,0.3398,0.3519,0.3389,0.3416,0.3361,0.3325,0.3253,0.3667,0.2966,0.2886,0.2877,0.2886,0.2871,0.2876,0.2879,0.2881,0.2883,0.2666,0.2685,0.2713,0.2741,0.2796,0.2808,0.2805,0.2876,0.2944,0.3012,0.3173,0.3167,0.3212,0.3096,0.2994,0.2912,0.3141,0.2974,0.2985,0.3002,0.291,0.2833,0.2791,0.2794,0.2797,0.28,0.2803,0,0.2671,0.266,0.2694,0.27,0.2701,0.2752,0.2779,0.2723,0.2704,0.2803,0.285,0.2633,0.2563,0.2597,0.2408,0.2414,0.2336,0.2306,0.217,0.2218,0.2259,0.2123,0.1799,0.1795,0.1792,0.1789,0,0,0.2665,0.2654,0.2636,0.2571,0.258,0.2523,0.2493,0.2422,0.2424,0.2345,0.2307,0.2481,0.2553,0.2155,0.2103,0.1918,0.2044,0.1835,0.265,0.254,0.2577,0.2667,0.2516,0,0,0,0,0]},{"header":{"parameterUnit":"m.s-1","parameterCategory":2,"la1":30.2991,"la2":30.254,"lo1":-89.0895,"lo2":-89.0444,"dy":0.0017,"dx":0.0017,"nx":28,"ny":28,"refTime":"2025-11-25T09:00:00:Z","depth":"2","parameterNumber":3,"parameterNumberName":"V-component_of_CURRENTS"},"data":[0,0,0,0,0,0,0,0,0,0,0,0,0,0,0,0,0,0,0,0,0,0,0,0,0,0,0,0,0,0,0,0,0,0,0,0,0,0,0,0,0,0,0,0,0,0,0,0,0,0,0,0,0,0,0,0,0,0,0.0268,0.0268,0,0.0244,0.0244,0.0243,0.0218,0.0218,0.0218,0.0218,0.0168,0.0167,0.0166,0,0,0,0,0,0,0,0,0,0,0,0,0,0.0247,0.0247,0.0268,0.0268,0.0268,0.0244,0.0244,0.0243,0.0218,0.0218,0.0218,0.0217,0.0168,0.0167,0.0166,0,0,0,0,0,0,0,0,0,0,0,0,0,0.0241,0.0248,0.0268,0.0254,0.0252,0.0244,0.0244,0.0243,0.0218,0.0218,0.0218,0.0217,0.0169,0.0167,0.0165,0.0161,0,0,0.016,0.016,0,0,0,0,0,0,0,0,0.0242,0.0242,0.0256,0.0255,0.0253,0.0235,0.0218,0.0215,0.0218,0.0229,0.0218,0.0217,0.0189,0.0186,0.018,0.0159,0.0157,0.016,0.0159,0.0158,0.0158,0,0,0,0,0,0,0,0.0242,0.0243,0.0257,0.0256,0.0254,0.0233,0.0232,0.0217,0.021,0.0228,0.0227,0.0227,0.0188,0.0182,0.0179,0.0156,0.016,0.0159,0.0158,0.0157,0.0135,0.0136,0,0,0,0,0,0,0.0251,0.0243,0.0258,0.0256,0.0248,0.0234,0.0233,0.024,0.021,0.0206,0.0227,0.0226,0.0185,0.0181,0.0177,0.019,0.0158,0.0157,0.0156,0.0135,0.0136,0.0136,0,0,0,0,0,0,0.0251,0.0253,0.0259,0.025,0.0249,0.0235,0.0243,0.024,0.0236,0.021,0.0205,0.0228,0.0185,0.0179,0.0172,0.0187,0.0156,0.0155,0.0135,0.0135,0.0136,0.0202,0,0,0,0,0,0,0.0251,0.0253,0.026,0.0251,0.025,0.0264,0.0243,0.0239,0.0237,0.0235,0.0209,0.0204,0.0184,0.0174,0.017,0.0184,0.0153,0.0134,0.0135,0.0136,0.0199,0.0205,0.021,0,0,0,0,0,0.025,0.0265,0.026,0.0262,0.0261,0.0265,0.0263,0.025,0.0238,0.0244,0.0224,0.0205,0.0176,0.0174,0.0168,0.0182,0.0134,0.0135,0.0136,0.0197,0.0204,0.021,0,0,0,0,0,0,0.0258,0.0264,0.0258,0.0274,0.0273,0.0262,0.0265,0.0255,0.0244,0.0239,0.0211,0.0206,0.0203,0.0182,0.018,0.0177,0.0151,0.0151,0.02,0.0206,0.0211,0.0227,0.0152,0,0,0,0,0,0.0264,0.0277,0.0276,0.0288,0.0289,0.0277,0.0276,0.0269,0.0259,0.0253,0.0236,0.0216,0.0202,0.0197,0.018,0.0181,0.0154,0.0185,0.019,0.0194,0.0204,0.0177,0.0181,0.0139,0.0139,0.0139,0,0,0.0269,0.0274,0.0281,0.029,0.0286,0.0303,0.0275,0.028,0.0293,0.0249,0.0258,0.0233,0.0206,0.0207,0.0204,0.0193,0.0191,0.0196,0.02,0.0207,0.0178,0.0182,0.0186,0.014,0.014,0.014,0,0,0.0293,0.0293,0.0314,0.032,0.0323,0.032,0.0325,0.0319,0.0315,0.0318,0.029,0.0276,0.0257,0.0243,0.0233,0.0256,0.0217,0.0248,0.0292,0.0266,0.0269,0.0272,0.0239,0.0238,0.0254,0.0254,0.0254,0,0.0299,0.0329,0.0319,0.0343,0.0356,0.0334,0.0362,0.0357,0.0349,0.0353,0.033,0.0305,0.0276,0.0282,0.0287,0.0269,0.0245,0.0273,0.0274,0.0276,0.0277,0.0242,0.0241,0.0257,0.0257,0.0256,0.0256,0,0.0341,0.0365,0.0378,0.0405,0.0416,0.0435,0.0433,0.0437,0.0425,0.0421,0.0418,0.0376,0.0364,0.0349,0.0324,0.0327,0.0302,0.0282,0.0261,0.0286,0.0247,0.0244,0.0262,0.0261,0.026,0.0259,0,0,0.0359,0.0401,0.0407,0.0436,0.0453,0.0471,0.049,0.051,0.0538,0.0505,0.0531,0.0488,0.0461,0.0447,0.0409,0.0383,0.0363,0.0343,0.034,0.0315,0.0302,0.0283,0.0278,0.0344,0.0344,0.0344,0.0269,0,0.0397,0.0462,0.0468,0.0529,0.0566,0.0557,0.059,0.0601,0.0599,0.0616,0.0563,0.0572,0.0501,0.0501,0.0459,0.0398,0.0359,0.0385,0.0276,0.0273,0.0259,0.0275,0.0275,0.0209,0.0265,0.0265,0.0265,0,0.0439,0.0482,0.0551,0.0613,0.0628,0.0657,0.0708,0.0737,0.0747,0.0745,0.0725,0.0685,0.0646,0.0581,0.0472,0.0493,0.0401,0.0338,0.0334,0.0294,0.025,0.0193,0.02,0.0259,0.0259,0.026,0.026,0,0.0474,0.054,0.0601,0.0621,0.0684,0.0711,0.0746,0.0777,0.0833,0.0832,0.0868,0.0791,0.0781,0.0654,0.0511,0.0495,0.0386,0.0346,0.0237,0.0233,0.0201,0.0196,0.0258,0.0258,0.0258,0.0259,0.0259,0,0.052,0.0569,0.0624,0.0661,0.0752,0.0769,0.0864,0.0884,0.0942,0.1028,0.0945,0.0981,0.0802,0.0714,0.0552,0.0393,0.0411,0.0249,0.0218,0.0223,0.0221,0.0239,0.0238,0.0256,0.0256,0.0257,0.0257,0,0.0557,0.0587,0.0668,0.0741,0.0775,0.0842,0.0963,0.1039,0.1075,0.118,0.1191,0.1138,0.1022,0.0827,0.063,0.0474,0.0306,0.0237,0.0253,0.0225,0.0155,0.0158,0.0111,0.011,0.0109,0.0108,0.0107,0,0.0585,0.0631,0.0734,0.0797,0.0835,0.0941,0.1032,0.1104,0.1195,0.1282,0.1342,0.1265,0.1218,0.0918,0.0628,0.0345,0.0306,0.0159,0.0123,0.0169,0.0143,0.0147,0.0151,0.0098,0.0097,0.0096,0.0096,0,0.0649,0.0679,0.0751,0.0876,0.0974,0.1101,0.1225,0.1314,0.1411,0.1494,0.1564,0.1531,0.1261,0.0973,0.0593,0.0391,0.0203,0.0139,0.0188,0.0143,0.0153,0.0128,0.0134,0.0091,0.0091,0.0092,0.0092,0.0092,0.0695,0.0756,0.0845,0.0958,0.1087,0.1228,0.1328,0.1461,0.1605,0.1719,0.1697,0.1648,0.1343,0.0844,0.0513,0.0164,0.0188,0.0046,0.0049,0.0053,0.0073,0.0081,0.0009,0.0009,0.0009,0.0009,0.0009,0,0.0755,0.081,0.0921,0.1059,0.1194,0.1255,0.1442,0.1531,0.1684,0.1789,0.1834,0.1518,0.121,0.0857,0.0347,0.0051,0.0016,-0.0062,-0.0037,-0.0029,-0.0023,-0.0006,-0.0092,-0.0093,-0.0094,-0.0095,0,0,0.0785,0.0881,0.0923,0.1109,0.1219,0.1403,0.1501,0.163,0.173,0.1796,0.1782,0.1732,0.1313,0.0921,0.0509,0.0215,0.0157,0.0142,0.0253,0.0339,0.0349,0.0067,0.0105,0,0,0,0,0]}],[{"header":{"parameterUnit":"m.s-1","parameterCategory":2,"la1":30.2991,"la2":30.254,"lo1":-89.0895,"lo2":-89.0444,"dy":0.0017,"dx":0.0017,"nx":28,"ny":28,"refTime":"2025-11-25T09:00:00:Z","depth":"4","parameterNumber":2,"parameterNumberName":"U-component_of_CURRENTS"},"data":[0,0,0,0,0,0,0,0,0,0,0,0,0,0,0,0,0,0,0,0,0,0,0,0,0,0,0,0,0,0,0,0,0,0,0,0,0,0,0,0,0,0,0,0,0,0,0,0,0,0,0,0,0,0,0,0,0,0,0.1742,0.1743,0,0.1808,0.1809,0.181,0.1871,0.1872,0.1873,0.1874,0.1962,0.1963,0.1965,0,0,0,0,0,0,0,0,0,0,0,0,0,0.1671,0.1672,0.1742,0.1743,0.1744,0.1808,0.1809,0.181,0.1871,0.1872,0.1873,0.1875,0.1961,0.1963,0.1965,0,0,0,0,0,0,0,0,0,0,0,0,0,0.1715,0.1673,0.1742,0.1783,0.1788,0.1808,0.1809,0.181,0.1871,0.1872,0.1874,0.1875,0.1961,0.1963,0.1965,0.1952,0,0,0.1972,0.1973,0,0,0,0,0,0,0,0,0.1712,0.1717,0.1776,0.1781,0.1786,0.1834,0.1816,0.1859,0.1871,0.1838,0.1874,0.1876,0.1921,0.1926,0.1934,0.1956,0.196,0.1972,0.1973,0.1974,0.1975,0,0,0,0,0,0,0,0.1709,0.1715,0.1767,0.1777,0.1783,0.18,0.1807,0.1824,0.187,0.1841,0.1846,0.1855,0.1924,0.1931,0.1936,0.1961,0.1972,0.1974,0.1975,0.1976,0.2099,0.2101,0,0,0,0,0,0,0.1702,0.1712,0.1765,0.1769,0.1753,0.18,0.1808,0.1816,0.187,0.188,0.1854,0.1858,0.1927,0.1934,0.194,0.2033,0.1974,0.1976,0.1978,0.2097,0.21,0.2102,0,0,0,0,0,0,0.17,0.1706,0.1762,0.1743,0.1752,0.18,0.1808,0.1817,0.1863,0.188,0.189,0.1896,0.1928,0.1936,0.1992,0.2033,0.1977,0.1979,0.2095,0.2098,0.2101,0.2152,0,0,0,0,0,0,0.1698,0.1705,0.1727,0.1743,0.1753,0.1797,0.1807,0.1817,0.1865,0.1871,0.1918,0.1925,0.193,0.1989,0.1995,0.2035,0.1981,0.2093,0.2096,0.21,0.2148,0.2157,0.2164,0,0,0,0,0,0.1695,0.1712,0.1727,0.1735,0.1774,0.1799,0.1806,0.1843,0.1866,0.1889,0.1927,0.1926,0.2016,0.1992,0.1998,0.2041,0.2091,0.2095,0.21,0.2145,0.2155,0.2164,0,0,0,0,0,0,0.1695,0.1721,0.1737,0.1763,0.1791,0.181,0.1841,0.1862,0.191,0.193,0.1945,0.1955,0.2021,0.2023,0.1997,0.2088,0.2055,0.2061,0.2088,0.2098,0.2105,0.2102,0.1983,0,0,0,0,0,0.1703,0.1726,0.1749,0.1775,0.1792,0.1823,0.1846,0.1871,0.1905,0.1929,0.1962,0.2001,0.2036,0.2062,0.209,0.2135,0.2142,0.2169,0.2176,0.2183,0.2186,0.2241,0.2253,0.2116,0.2116,0.2116,0,0,0.1711,0.1729,0.1745,0.1778,0.1805,0.1832,0.1841,0.1886,0.192,0.1929,0.2001,0.2031,0.2055,0.211,0.214,0.2123,0.2226,0.2188,0.2194,0.2193,0.2246,0.226,0.2272,0.2119,0.2118,0.2118,0,0,0.1725,0.1757,0.1777,0.1803,0.1848,0.1865,0.1885,0.1927,0.1964,0.2022,0.2044,0.21,0.2153,0.2179,0.2196,0.2263,0.2265,0.2281,0.232,0.2373,0.2384,0.2394,0.2415,0.2427,0.2285,0.2285,0.2285,0,0.1739,0.1763,0.1789,0.1815,0.1843,0.1883,0.1913,0.1948,0.2008,0.2047,0.2058,0.2163,0.2183,0.2249,0.2275,0.2281,0.2303,0.2279,0.2382,0.2393,0.2402,0.2421,0.2433,0.2288,0.2288,0.2288,0.2287,0,0.1754,0.1791,0.1809,0.1853,0.1886,0.1922,0.1965,0.2019,0.207,0.2109,0.2203,0.2236,0.2302,0.2318,0.2316,0.2399,0.239,0.2385,0.2354,0.2419,0.2435,0.2446,0.2293,0.2292,0.2291,0.229,0,0,0.1738,0.1806,0.1817,0.1848,0.1913,0.1936,0.2005,0.2072,0.2133,0.2203,0.2282,0.2345,0.2384,0.2405,0.2422,0.2461,0.2541,0.2457,0.2458,0.247,0.2649,0.2472,0.2467,0.2563,0.2566,0.2568,0.2629,0,0.1748,0.1797,0.1832,0.1893,0.1922,0.1985,0.2043,0.2116,0.2188,0.2275,0.2336,0.2417,0.2411,0.2459,0.2502,0.254,0.2576,0.2523,0.2591,0.2592,0.2421,0.2476,0.2576,0.2638,0.2641,0.2643,0.2644,0,0.1745,0.1781,0.1837,0.1918,0.1939,0.1987,0.2096,0.2156,0.2279,0.2342,0.2438,0.249,0.2578,0.2557,0.2657,0.2631,0.2647,0.2659,0.2662,0.2485,0.2436,0.2563,0.2665,0.2663,0.2662,0.266,0.2659,0,0.1704,0.1783,0.1831,0.1858,0.1953,0.2007,0.2072,0.2189,0.2255,0.24,0.2466,0.2576,0.2646,0.2698,0.2735,0.2716,0.2822,0.2797,0.2647,0.2635,0.2752,0.274,0.2859,0.2859,0.2859,0.2859,0.2859,0,0.1681,0.1724,0.1824,0.1849,0.192,0.2001,0.2096,0.2181,0.231,0.2384,0.2507,0.257,0.2691,0.276,0.2773,0.2743,0.2863,0.2656,0.2643,0.2771,0.2761,0.2759,0.2747,0.2861,0.286,0.286,0.286,0,0.1619,0.169,0.1746,0.1858,0.1902,0.1956,0.2095,0.2153,0.2297,0.2397,0.2449,0.2604,0.2689,0.277,0.2855,0.2773,0.2773,0.273,0.2861,0.2853,0.2537,0.2527,0.256,0.2555,0.255,0.2546,0.2542,0,0.1586,0.1611,0.1734,0.1773,0.183,0.1927,0.1984,0.2132,0.2189,0.2384,0.241,0.256,0.2638,0.2623,0.2717,0.2732,0.2697,0.2667,0.259,0.2525,0.251,0.2507,0.2504,0.2535,0.2534,0.2532,0.2531,0,0.1513,0.1572,0.1618,0.1697,0.1765,0.1823,0.192,0.1951,0.211,0.2258,0.232,0.2368,0.2455,0.2516,0.2549,0.2551,0.2669,0.2616,0.2625,0.2553,0.2495,0.2484,0.2486,0.2515,0.2517,0.2519,0.2519,0,0.1458,0.1467,0.1537,0.1589,0.1663,0.168,0.1758,0.1819,0.1897,0.2108,0.2124,0.2283,0.2432,0.2422,0.2453,0.2445,0.2398,0.2298,0.2323,0.2342,0.2239,0.2132,0.2032,0,0,0,0,0,0.1387,0.1381,0.1421,0.1456,0.1519,0.1569,0.1684,0.1766,0.1923,0.191,0.2014,0.2084,0.2137,0.2225,0.2173,0.2345,0.2402,0.2269,0.2298,0.2423,0.2442,0.234,0,0,0,0,0,0,0.1338,0.1371,0.1371,0.1321,0.1331,0.1381,0.1456,0.1576,0.1585,0.1764,0.1817,0.1941,0.204,0.2149,0.213,0.2151,0.212,0.237,0.2364,0.2412,0.2429,0.2445,0.2346,0,0,0,0,0]},{"header":{"parameterUnit":"m.s-1","parameterCategory":2,"la1":30.2991,"la2":30.254,"lo1":-89.0895,"lo2":-89.0444,"dy":0.0017,"dx":0.0017,"nx":28,"ny":28,"refTime":"2025-11-25T09:00:00:Z","depth":"4","parameterNumber":3,"parameterNumberName":"V-component_of_CURRENTS"},"data":[0,0,0,0,0,0,0,0,0,0,0,0,0,0,0,0,0,0,0,0,0,0,0,0,0,0,0,0,0,0,0,0,0,0,0,0,0,0,0,0,0,0,0,0,0,0,0,0,0,0,0,0,0,0,0,0,0,0,0.0113,0.0113,0,0.0101,0.01,0.01,0.0084,0.0084,0.0084,0.0084,0.0049,0.0048,0.0047,0,0,0,0,0,0,0,0,0,0,0,0,0,0.0095,0.0096,0.0113,0.0113,0.0113,0.0101,0.01,0.01,0.0084,0.0084,0.0084,0.0084,0.0049,0.0048,0.0047,0,0,0,0,0,0,0,0,0,0,0,0,0,0.0094,0.0096,0.0113,0.0105,0.0104,0.0101,0.01,0.01,0.0084,0.0084,0.0084,0.0084,0.0049,0.0048,0.0047,0.0044,0,0,0.0043,0.0043,0,0,0,0,0,0,0,0,0.0094,0.0095,0.0106,0.0105,0.0104,0.0095,0.0081,0.008,0.0084,0.0091,0.0084,0.0084,0.0063,0.0061,0.0057,0.0042,0.0041,0.0043,0.0042,0.0042,0.0041,0,0,0,0,0,0,0,0.0094,0.0095,0.0107,0.0106,0.0105,0.0092,0.0091,0.0081,0.0077,0.009,0.0089,0.009,0.0062,0.0059,0.0056,0.004,0.0043,0.0042,0.0041,0.0041,0.0033,0.0033,0,0,0,0,0,0,0.01,0.0095,0.0108,0.0107,0.01,0.0092,0.0092,0.0097,0.0077,0.0075,0.009,0.0089,0.0061,0.0058,0.0055,0.0072,0.0042,0.0041,0.004,0.0032,0.0033,0.0033,0,0,0,0,0,0,0.01,0.0101,0.0108,0.0101,0.0101,0.0093,0.0099,0.0097,0.0097,0.0078,0.0074,0.0092,0.006,0.0057,0.0054,0.0069,0.004,0.0039,0.0032,0.0032,0.0033,0.0092,0,0,0,0,0,0,0.0099,0.0102,0.0107,0.0102,0.0102,0.0115,0.0099,0.0097,0.0098,0.0096,0.0078,0.0075,0.006,0.0056,0.0053,0.0067,0.0038,0.0031,0.0032,0.0033,0.0089,0.0094,0.0099,0,0,0,0,0,0.0099,0.011,0.0108,0.0109,0.011,0.0115,0.0114,0.0106,0.0098,0.0104,0.0091,0.0075,0.0059,0.0055,0.0051,0.0066,0.003,0.0032,0.0033,0.0087,0.0093,0.0099,0,0,0,0,0,0,0.0103,0.0109,0.0107,0.0118,0.012,0.0113,0.0117,0.0111,0.0105,0.0103,0.0082,0.0078,0.008,0.0064,0.006,0.0066,0.0042,0.0043,0.0085,0.009,0.0095,0.0106,0.0037,0,0,0,0,0,0.0108,0.0119,0.012,0.0129,0.0131,0.0125,0.0125,0.0121,0.0116,0.0113,0.0102,0.0089,0.0081,0.0079,0.0067,0.0072,0.0045,0.0078,0.0083,0.0087,0.0093,0.0065,0.0068,0.0037,0.0037,0.0037,0,0,0.0112,0.0116,0.0122,0.0131,0.013,0.0146,0.0124,0.013,0.0144,0.011,0.0123,0.0104,0.0085,0.0091,0.0091,0.0081,0.0081,0.0089,0.0093,0.0096,0.0067,0.007,0.0072,0.0038,0.0038,0.0038,0,0,0.0129,0.013,0.0147,0.0154,0.016,0.016,0.0164,0.0163,0.0163,0.0171,0.015,0.0142,0.0132,0.0125,0.0118,0.0142,0.0105,0.0138,0.0176,0.0149,0.0151,0.0153,0.0119,0.0117,0.0144,0.0144,0.0144,0,0.0134,0.0157,0.0152,0.0171,0.0183,0.0171,0.0195,0.0195,0.0194,0.0199,0.0182,0.0169,0.015,0.0159,0.0167,0.0154,0.0129,0.0157,0.0155,0.0156,0.0157,0.0122,0.0119,0.0147,0.0147,0.0146,0.0146,0,0.0165,0.0186,0.0196,0.0221,0.0232,0.0249,0.0254,0.0262,0.0257,0.0257,0.0259,0.0231,0.0225,0.0216,0.02,0.0203,0.0179,0.0162,0.0142,0.0164,0.0125,0.0121,0.0151,0.015,0.0149,0.0148,0,0,0.0173,0.0212,0.0217,0.0241,0.0262,0.0276,0.0301,0.0321,0.0343,0.0327,0.0344,0.0325,0.0305,0.0296,0.027,0.0247,0.0226,0.0213,0.021,0.0182,0.0161,0.0137,0.0129,0.0209,0.0209,0.0209,0.013,0,0.0201,0.0252,0.0263,0.0314,0.0342,0.0345,0.0377,0.0391,0.0393,0.0405,0.0371,0.0377,0.0338,0.0336,0.0307,0.025,0.022,0.0249,0.0141,0.0138,0.0116,0.0126,0.0208,0.0127,0.0126,0.0125,0.0125,0,0.023,0.0263,0.0319,0.0373,0.0385,0.0415,0.0459,0.0486,0.0497,0.0496,0.0486,0.0457,0.043,0.0386,0.0298,0.0319,0.0247,0.0193,0.0188,0.0144,0.0107,0.01,0.0117,0.0118,0.0118,0.0119,0.0119,0,0.0245,0.0303,0.0351,0.0369,0.0426,0.0453,0.0486,0.0515,0.0549,0.0555,0.0564,0.0524,0.0504,0.0415,0.0304,0.0302,0.0191,0.0172,0.0079,0.0076,0.0095,0.0094,0.0102,0.0102,0.0102,0.0102,0.0102,0,0.0272,0.0311,0.0365,0.0393,0.046,0.0488,0.0556,0.0578,0.0616,0.0657,0.0615,0.0618,0.051,0.0432,0.0322,0.019,0.0202,0.0087,0.0057,0.0121,0.0123,0.0092,0.0092,0.0099,0.01,0.01,0.0101,0,0.028,0.0316,0.0375,0.0441,0.047,0.0518,0.0606,0.0654,0.0682,0.0727,0.0731,0.0691,0.0598,0.0469,0.0323,0.022,0.0092,0.0036,0.0112,0.0088,-0.0011,-0.0007,-0.0067,-0.0068,-0.007,-0.0071,-0.0072,0,0.0289,0.032,0.0405,0.0449,0.0483,0.0561,0.0623,0.0684,0.0732,0.0767,0.0784,0.072,0.0668,0.0456,0.0311,0.0099,0.0062,-0.0017,-0.0012,-0.0004,-0.0027,-0.0021,-0.0016,-0.0073,-0.0074,-0.0074,-0.0074,0,0.03,0.0329,0.0379,0.0471,0.0541,0.0623,0.0706,0.0749,0.0816,0.0833,0.0836,0.0734,0.0625,0.0464,0.0297,0.0142,0.0031,-0.003,-0.0029,-0.0025,-0.0013,-0.0033,-0.0027,-0.0079,-0.0078,-0.0078,-0.0077,0,0.0305,0.0338,0.0407,0.0488,0.0574,0.0658,0.0709,0.0774,0.083,0.0869,0.0865,0.0757,0.0705,0.0484,0.0329,0.0178,0.0134,0.0069,0.0064,0.0067,0.0124,0.016,0.0125,0,0,0,0,0,0.031,0.0351,0.0422,0.0513,0.0596,0.0657,0.0754,0.08,0.0858,0.087,0.0876,0.0778,0.0573,0.0491,0.0338,0.0279,0.0086,0.0089,0.0004,-0.0102,-0.0097,-0.0056,0,0,0,0,0,0,0.0315,0.0379,0.0415,0.0515,0.0583,0.0686,0.0755,0.0801,0.0814,0.0848,0.0754,0.0715,0.0526,0.0666,0.033,0.0284,0.02,0.0003,-0.0002,-0.0105,-0.01,-0.0097,-0.0052,0,0,0,0,0]}]]